This is the latest recevied weather packets stored in our database for station/object SP2WPY-13. If no packets are shown the sender has not sent any weather packets the latest 10 day(s).
| Time | Temp. | Humidity | Pressure | Rain* | Wind** | Luminosity | Snow |
|---|---|---|---|---|---|---|---|
| 1787820615 | 22.22° C | 64% | 1027.9 hPa | - | - | - | - |
| 1787820339 | 21.67° C | 63% | 1027.9 hPa | - | - | - | - |
| 1787820019 | 21.11° C | 64% | 1027.9 hPa | - | - | - | - |
| 1787819744 | 21.11° C | 65% | 1028 hPa | - | - | - | - |
| 1787819424 | 21.67° C | 64% | 1027.9 hPa | - | - | - | - |
| 1787819103 | 21.67° C | 64% | 1028 hPa | - | - | - | - |
| 1787818829 | 21.67° C | 67% | 1028 hPa | - | - | - | - |
| 1787818510 | 21.67° C | 67% | 1028 hPa | - | - | - | - |
| 1787818236 | 21.67° C | 66% | 1028 hPa | - | - | - | - |
| 1787817916 | 22.22° C | 68% | 1027.9 hPa | - | - | - | - |
| 1787817642 | 21.67° C | 70% | 1028 hPa | - | - | - | - |
| 1787817323 | 21.67° C | 73% | 1027.9 hPa | - | - | - | - |
| 1787817002 | 21.67° C | 73% | 1027.8 hPa | - | - | - | - |
| 1787816728 | 21.67° C | 73% | 1027.8 hPa | - | - | - | - |
| 1787816408 | 21.67° C | 75% | 1027.8 hPa | - | - | - | - |
| 1787816135 | 21.67° C | 76% | 1027.8 hPa | - | - | - | - |
| 1787815815 | 21.67° C | 75% | 1027.8 hPa | - | - | - | - |
| 1787815542 | 21.67° C | 75% | 1027.8 hPa | - | - | - | - |
| 1787815222 | 21.67° C | 75% | 1027.8 hPa | - | - | - | - |
| 1787814902 | 21.67° C | 76% | 1027.8 hPa | - | - | - | - |
| 1787814628 | 21.67° C | 80% | 1027.8 hPa | - | - | - | - |
| 1787814308 | 21.67° C | 81% | 1027.8 hPa | - | - | - | - |
| 1787814035 | 21.11° C | 84% | 1027.9 hPa | - | - | - | - |
| 1787813714 | 20.56° C | 87% | 1027.8 hPa | - | - | - | - |
| 1787813441 | 20.56° C | 83% | 1027.7 hPa | - | - | - | - |
* Rain since midnight (hover to see other rain measurements)
** Current wind speed in m/s (hover to see current wind gust speed)